User: anonymous   Login
Location: Hawks Ness
(60.2333°N, 1.1667°W)
Time: 22:11:40
(UTC+00:00)
Language:

Cosmos 1570 Rocket - Orbit

View from above orbital plane
View from above orbital plane
View from above satellite
View from above satellite

Ground track
Ground track

The orbit data is extracted from the following two-line orbital elements,

1 15032U 84056B   19340.89973712 +.00000027 +00000-0 +18611-4 0  9997
2 15032 074.0703 225.8738 0017099 164.0383 196.1311 14.34790802856111
Epoch (UTC): 06 December 2019 21:35:37
Eccentricity: 0.0017099
inclination: 74.0703°
perigee height: 763 km
apogee height: 788 km
right ascension of ascending node: 225.8738°
argument of perigee: 164.0383°
revolutions per day: 14.34790802
mean anomaly at epoch: 196.1311°
orbit number at epoch: 85611

The dashed part of the orbit path shows where the satellite is in the earth's shadow,  

DLR